weather.gov     
National Weather Service

Regional Weather Roundup
NWS Homepage
This page is being discontinued on March 12, 2014.
The same data is available at this site. Please update your bookmarks.
Thank you, and we apologize for the inconvenience.
Please send an email to SR-SRH.Webmaster@noaa.gov with any concerns.


Current Version
Previous Version:    01  02  03  04  05  06  07  08  09  10  11  12  13  14  15  16  17  18  19  20  21  22  23  24  25  26  27  
[Printable]
646
ASUS45 KREV 310710
RWRNV
NEVADA REGIONAL WEATHER ROUNDUP
NATIONAL WEATHER SERVICE RENO NV
1100 PM PST FRI JAN 30 2015

NOTE: "FAIR" INDICATES FEW OR NO CLOUDS BELOW 12,000 FEET WITH NO
SIGNIFICANT WEATHER AND/OR OBSTRUCTIONS TO VISIBILITY.

NVZ001-003-004-310800-
WESTERN NEVADA

CITY           SKY/WX    TMP DP  RH WIND       PRES   REMARKS
RENO           PTCLDY    40  29  64 N7        30.12R
CARSON CITY    CLOUDY    37  28  70 NE5       30.12R
SLIDE MTN        N/A     23  21  93 N21         N/A
FALLON         PTCLDY    35  30  82 NW6       30.10R
LOVELOCK       CLEAR     35  29  78 NE8       30.11S
HAWTHORNE      CLOUDY    41  32  70 N17G24    30.08R
$$

NVZ002-CAZ072-073-310800-
NORTHERN AND CENTRAL SIERRA

CITY           SKY/WX    TMP DP  RH WIND       PRES   REMARKS
S. LAKE TAHOE  CLEAR     31  25  78 CALM      30.06R
TRUCKEE        CLEAR     28  25  86 W5        30.08S
SQUAW VLY 8000   N/A     28  28 100 CALM        N/A
BLUE CANYON    CLEAR     43  20  39 NE12G22   30.01S
MAMMOTH LAKES  CLOUDY    34  27  75 W13       30.05S
BRIDGEPORT     CLOUDY    33  25  72 NE10G20   30.05R
$$

NVZ030-031-036-310800-
NORTHERN NEVADA

CITY           SKY/WX    TMP DP  RH WIND       PRES   REMARKS
ELKO           MOCLDY    30  27  88 CALM      30.05R
WINNEMUCCA     CLEAR     29  26  89 NW9       30.12F
WENDOVER       CLOUDY    39  30  70 NW10      30.03S
$$

NVZ035-037-310800-
CENTRAL NEVADA

CITY           SKY/WX    TMP DP  RH WIND       PRES   REMARKS
ELY            CLOUDY    33  32  96 N17       29.96F
EUREKA           N/A     35  29  78 N12       30.00S
$$

NVZ013-014-310800-
SOUTH CENTRAL NEVADA

CITY           SKY/WX    TMP DP  RH WIND       PRES   REMARKS
TONOPAH        CLOUDY    42  30  62 N12       29.96S
$$

NVZ017-020-022-310800-
SOUTHERN NEVADA

CITY           SKY/WX    TMP DP  RH WIND       PRES   REMARKS
LAS VEGAS      CLOUDY    50  44  80 NE5       29.84S
N. LAS VEGAS   LGT RAIN  50  43  77 N5        29.88R
NELLIS AFB     CLOUDY    50  50 100 E3        29.88S
HENDERSON      LGT RAIN  48  44  86 E6        29.90S
MERCURY        CLOUDY    46  41  82 E5        29.88F
$$




U.S. Dept. of Commerce
NOAA National Weather Service
1325 East West Highway
Silver Spring, MD 20910
E-mail: w-nws.webmaster@noaa.gov
Page last modified: May 16, 2007
NATIONAL WEATHER SERVICE: for Safety, for Work, for Fun - FOR LIFE